Location: Unspecified
(0.0000°N, 0.0000°E)
Time: 22:24:56
(UTC+00:00)

Amsat-Oscar-6 - Pass Details

Date: 25 June 2019
Orbit: 1448 x 1455 km, 101.8° (Epoch: 22 October)

Event Time Altitude Azimuth Distance (km) Brightness Sun altitude
Rises 04:11:48 0° 356° (N) 4,542 ? -25.2°
Reaches altitude 10° 04:14:55 10° 347° (NNW) 3,566 ? -24.5°
Maximum altitude 04:22:05 33° 287° (WNW) 2,239 ? -22.9°
Enters shadow 04:23:24 32° 270° (W) 2,297 ? -22.6°
